AC5JC-1 Weather Reports


Display with metric or nautical units.
time (UTC)temp
F
wind
direction
speed
MPH
gust
MPH
rain 1hr
in
rain 24hr
in
rain mn
in
humidity
%
barometer
mb
20260904215534 99 190 1.0 3.0 0.00 0.00 0.00 44 1011.7
20260904215027 99 192 2.0 6.0 0.00 0.00 0.00 45 1011.7
20260904214610 99 185 2.0 5.0 0.00 0.00 0.00 45 1011.7
20260904214050 99 198 2.0 6.0 0.00 0.00 0.00 45 1011.7
20260904213534 100 194 2.0 3.0 0.00 0.00 0.00 44 1011.9
20260904213054 99 185 1.0 2.0 0.00 0.00 0.00 43 1011.8
20260904212534 99 197 2.0 3.0 0.00 0.00 0.00 43 1011.9
20260904212034 99 213 2.0 3.0 0.00 0.00 0.00 43 1012.1
20260904211532 98 210 2.0 3.0 0.00 0.00 0.00 43 1012.1
20260904211114 99 201 3.0 5.0 0.00 0.00 0.00 44 1012.1
20260904210554 99 203 2.0 3.0 0.00 0.00 0.00 44 1012.2
20260904210035 99 189 3.0 5.0 0.00 0.00 0.00 44 1012.3
20260904205533 99 197 2.0 5.0 0.00 0.00 0.00 44 1012.4
20260904205033 99 176 2.0 3.0 0.00 0.00 0.00 44 1012.4
20260904204524 99 195 2.0 6.0 0.00 0.00 0.00 45 1012.5
20260904204107 98 203 2.0 3.0 0.00 0.00 0.00 44 1012.6
20260904203626 98 183 2.0 3.0 0.00 0.00 0.00 46 1012.6
20260904203034 98 193 2.0 3.0 0.00 0.00 0.00 45 1012.7
20260904202534 98 180 3.0 5.0 0.00 0.00 0.00 46 1012.8
20260904202033 98 186 3.0 5.0 0.00 0.00 0.00 45 1012.8
20260904201618 98 182 3.0 3.0 0.00 0.00 0.00 45 1012.9
20260904201058 98 202 2.0 3.0 0.00 0.00 0.00 46 1013.1
20260904200538 98 207 2.0 3.0 0.00 0.00 0.00 46 1013.1
20260904200034 97 212 3.0 5.0 0.00 0.00 0.00 47 1013.2
20260904195534 97 197 2.0 6.0 0.00 0.00 0.00 47 1013.2
20260904195033 97 195 2.0 5.0 0.00 0.00 0.00 48 1013.2
20260904194604 97 227 3.0 7.0 0.00 0.00 0.00 48 1013.3
20260904194107 96 194 2.0 3.0 0.00 0.00 0.00 49 1013.3
20260904193546 96 195 2.0 5.0 0.00 0.00 0.00 50 1013.5
20260904193034 95 201 2.0 5.0 0.00 0.00 0.00 51 1013.5
20260904192533 94 189 2.0 3.0 0.00 0.00 0.00 53 1013.5
20260904192033 94 192 2.0 5.0 0.00 0.00 0.00 53 1013.6
20260904191612 94 175 1.0 2.0 0.00 0.00 0.00 51 1013.7
20260904191115 94 210 2.0 3.0 0.00 0.00 0.00 51 1013.7
20260904190554 94 178 2.0 3.0 0.00 0.00 0.00 49 1013.8
20260904190034 94 195 2.0 3.0 0.00 0.00 0.00 47 1014.0
20260904185534 93 188 1.0 3.0 0.00 0.00 0.00 47 1014.1
20260904185034 93 188 2.0 3.0 0.00 0.00 0.00 47 1014.1
20260904184535 95 192 2.0 3.0 0.00 0.00 0.00 45 1014.3
20260904184019 95 195 2.0 5.0 0.00 0.00 0.00 46 1014.2
20260904183603 95 191 2.0 3.0 0.00 0.00 0.00 46 1014.3
20260904183035 94 180 2.0 5.0 0.00 0.00 0.00 46 1014.3
20260904182534 93 167 2.0 5.0 0.00 0.00 0.00 47 1014.3
20260904182034 93 176 2.0 3.0 0.00 0.00 0.00 47 1014.4
20260904181532 93 196 2.0 6.0 0.00 0.00 0.00 49 1014.6
20260904181114 93 180 2.0 5.0 0.00 0.00 0.00 51 1014.7
20260904180554 93 201 2.0 5.0 0.00 0.00 0.00 51 1014.8
20260904180036 92 175 1.0 1.0 0.00 0.00 0.00 54 1014.7
20260904175554 91 190 2.0 3.0 0.00 0.00 0.00 54 1014.7
20260904175114 90 190 2.0 5.0 0.00 0.00 0.00 56 1014.9
20260904174533 90 180 2.0 3.0 0.00 0.00 0.00 57 1014.9
20260904174019 90 181 2.0 3.0 0.00 0.00 0.00 57 1015.0
20260904173603 88 181 2.0 5.0 0.00 0.00 0.00 59 1015.1
20260904173043 87 191 2.0 3.0 0.00 0.00 0.00 61 1015.1
20260904172533 88 185 2.0 3.0 0.00 0.00 0.00 62 1015.2
20260904172034 87 193 2.0 3.0 0.00 0.00 0.00 66 1015.2
20260904171534 85 196 1.0 3.0 0.00 0.00 0.00 71 1015.3
20260904171034 85 182 1.0 2.0 0.00 0.00 0.00 73 1015.4
20260904170533 84 190 2.0 2.0 0.00 0.00 0.00 73 1015.4
20260904170034 84 186 1.0 2.0 0.00 0.00 0.00 74 1015.5
20260904165533 84 188 1.0 3.0 0.00 0.00 0.00 75 1015.5
20260904165033 84 193 1.0 3.0 0.00 0.00 0.00 75 1015.5
20260904164534 84 197 2.0 3.0 0.00 0.00 0.00 75 1015.6
20260904164054 84 185 2.0 3.0 0.00 0.00 0.00 76 1015.6
20260904163534 84 197 2.0 3.0 0.00 0.00 0.00 77 1015.4
20260904163055 84 189 2.0 3.0 0.00 0.00 0.00 77 1015.7
20260904162533 84 184 1.0 3.0 0.00 0.00 0.00 77 1015.6
20260904162034 84 188 1.0 5.0 0.00 0.00 0.00 77 1015.7
20260904161534 84 179 2.0 3.0 0.00 0.00 0.00 78 1015.5
20260904161034 84 209 2.0 3.0 0.00 0.00 0.00 78 1015.5
20260904160553 84 190 2.0 5.0 0.00 0.00 0.00 76 1015.5
20260904160034 85 206 2.0 3.0 0.00 0.00 0.00 75 1015.6
20260904155534 85 202 2.0 3.0 0.00 0.00 0.00 76 1015.6
20260904155033 85 184 2.0 3.0 0.00 0.00 0.00 75 1015.5
20260904154534 85 182 2.0 3.0 0.00 0.00 0.00 76 1015.5
20260904154034 84 204 2.0 3.0 0.00 0.00 0.00 76 1015.6
20260904153619 85 195 2.0 5.0 0.00 0.00 0.00 75 1015.5
20260904153059 84 182 2.0 3.0 0.00 0.00 0.00 75 1015.6
20260904152539 84 191 1.0 3.0 0.00 0.00 0.00 77 1015.5
20260904152054 84 193 2.0 3.0 0.00 0.00 0.00 77 1015.6
20260904151535 84 194 2.0 3.0 0.00 0.00 0.00 78 1015.5
20260904151033 84 183 2.0 3.0 0.00 0.00 0.00 78 1015.4
20260904150534 84 186 2.0 3.0 0.00 0.00 0.00 78 1015.3
20260904150033 84 181 1.0 3.0 0.00 0.00 0.00 78 1015.2
20260904145554 83 188 2.0 3.0 0.00 0.00 0.00 79 1015.2
20260904145034 83 192 2.0 3.0 0.00 0.00 0.00 80 1015.2
20260904144534 83 183 1.0 2.0 0.00 0.00 0.00 80 1015.3
20260904144034 82 181 1.0 2.0 0.00 0.00 0.00 82 1015.2
20260904143531 82 177 1.0 3.0 0.00 0.00 0.00 83 1015.2
20260904143115 82 186 1.0 2.0 0.00 0.00 0.00 83 1015.3
20260904142555 81 167 1.0 2.0 0.00 0.00 0.00 83 1015.3
20260904142033 81 176 1.0 2.0 0.00 0.00 0.00 83 1015.3
20260904141534 81 188 1.0 3.0 0.00 0.00 0.00 83 1015.2
20260904141034 81 186 1.0 2.0 0.00 0.00 0.00 84 1015.1
20260904140534 80 183 1.0 3.0 0.00 0.00 0.00 85 1015.0
20260904140034 80 180 1.0 2.0 0.00 0.00 0.00 85 1014.9
20260904135554 80 186 1.0 2.0 0.00 0.00 0.00 86 1014.9
20260904135033 80 176 1.0 2.0 0.00 0.00 0.00 87 1014.9
20260904134534 80 174 1.0 3.0 0.00 0.00 0.00 88 1015.0
20260904134034 80 181 1.0 2.0 0.00 0.00 0.00 88 1014.9
20260904133534 80 182 1.0 2.0 0.00 0.00 0.00 88 1014.9
20260904133034 80 180 1.0 2.0 0.00 0.00 0.00 88 1014.7
20260904132534 80 183 1.0 2.0 0.00 0.00 0.00 88 1014.7
20260904132034 79 185 1.0 2.0 0.00 0.00 0.00 89 1014.7
20260904131532 79 175 0.0 1.0 0.00 0.00 0.00 90 1014.6
20260904131115 78 183 0.0 1.0 0.00 0.00 0.00 91 1014.6
20260904130554 78 175 0.0 1.0 0.00 0.00 0.00 91 1014.4
20260904130036 78 177 1.0 1.0 0.00 0.00 0.00 91 1014.5
20260904125534 78 172 0.0 1.0 0.00 0.00 0.00 92 1014.5
20260904125054 78 176 0.0 1.0 0.00 0.00 0.00 92 1014.4
20260904124554 78 179 1.0 1.0 0.00 0.00 0.00 91 1014.4
20260904124020 78 177 1.0 1.0 0.00 0.00 0.00 91 1014.3
20260904123603 78 177 1.0 1.0 0.00 0.00 0.00 92 1014.4
20260904123043 78 178 1.0 1.0 0.00 0.00 0.00 92 1014.3
20260904122533 78 181 1.0 2.0 0.00 0.00 0.00 92 1014.3
20260904122033 77 181 1.0 2.0 0.00 0.00 0.00 92 1014.2
20260904121534 77 177 1.0 1.0 0.00 0.00 0.00 92 1014.1
20260904121033 77 176 0.0 1.0 0.00 0.00 0.00 92 1014.0
20260904120554 77 176 1.0 1.0 0.00 0.00 0.00 92 1013.9
20260904120035 77 182 1.0 2.0 0.00 0.00 0.00 92 1014.0
20260904115554 77 177 0.0 1.0 0.00 0.00 0.00 92 1014.0
20260904115033 77 160 1.0 2.0 0.00 0.00 0.00 92 1014.0
20260904114524 78 174 0.0 1.0 0.00 0.00 0.00 91 1014.0
20260904114107 78 170 0.0 1.0 0.00 0.00 0.00 91 1014.0
20260904113547 78 174 1.0 1.0 0.00 0.00 0.00 91 1014.0
20260904113028 78 178 1.0 1.0 0.00 0.00 0.00 91 1013.9
20260904112631 78 175 1.0 1.0 0.00 0.00 0.00 90 1013.9
20260904112051 78 174 1.0 1.0 0.00 0.00 0.00 90 1014.0
20260904111533 78 177 1.0 1.0 0.00 0.00 0.00 90 1013.9
20260904111155 78 174 1.0 1.0 0.00 0.00 0.00 90 1013.9
20260904110555 78 149 1.0 2.0 0.00 0.00 0.00 89 1013.9
20260904110034 78 180 1.0 2.0 0.00 0.00 0.00 89 1013.9
20260904105619 79 177 1.0 1.0 0.00 0.00 0.00 88 1013.8
20260904105059 79 175 1.0 1.0 0.00 0.00 0.00 88 1013.8
20260904104534 79 184 1.0 2.0 0.00 0.00 0.00 87 1013.8
20260904104040 79 179 0.0 1.0 0.00 0.00 0.00 87 1013.7
20260904103547 79 184 1.0 3.0 0.00 0.00 0.00 87 1013.6
20260904103029 79 179 1.0 2.0 0.00 0.00 0.00 86 1013.6
20260904102611 79 183 2.0 7.0 0.00 0.00 0.00 87 1013.6
20260904102051 79 182 2.0 2.0 0.00 0.00 0.00 87 1013.4
20260904101532 79 176 1.0 1.0 0.00 0.00 0.00 87 1013.5
20260904101115 79 182 1.0 1.0 0.00 0.00 0.00 86 1013.4
20260904100555 79 177 1.0 2.0 0.00 0.00 0.00 85 1013.4
20260904100034 79 198 2.0 3.0 0.00 0.00 0.00 85 1013.4
20260904095532 79 169 1.0 2.0 0.00 0.00 0.00 85 1013.6
20260904095135 79 196 2.0 5.0 0.00 0.00 0.00 86 1013.6
20260904094616 79 176 1.0 1.0 0.00 0.00 0.00 86 1013.5
20260904094034 79 166 1.0 2.0 0.00 0.00 0.00 87 1013.5
20260904093639 79 177 1.0 1.0 0.00 0.00 0.00 87 1013.7
20260904093100 79 180 1.0 2.0 0.00 0.00 0.00 87 1013.5
20260904092534 79 186 1.0 2.0 0.00 0.00 0.00 87 1013.4
20260904092020 79 195 2.0 3.0 0.00 0.00 0.00 87 1013.4
20260904091603 79 184 2.0 3.0 0.00 0.00 0.00 87 1013.4
20260904091045 79 178 1.0 2.0 0.00 0.00 0.00 86 1013.3
20260904090534 79 208 2.0 3.0 0.00 0.00 0.00 86 1013.4
20260904090020 79 184 1.0 3.0 0.00 0.00 0.00 87 1013.3
20260904085603 79 177 1.0 2.0 0.00 0.00 0.00 87 1013.3
20260904085045 79 179 1.0 3.0 0.00 0.00 0.00 87 1013.4
20260904084525 79 175 1.0 2.0 0.00 0.00 0.00 87 1013.3
20260904084107 79 181 1.0 3.0 0.00 0.00 0.00 87 1013.5
20260904083547 79 182 1.0 2.0 0.00 0.00 0.00 86 1013.3
20260904083034 79 173 1.0 1.0 0.00 0.00 0.00 86 1013.4
20260904082534 79 174 0.0 1.0 0.00 0.00 0.00 85 1013.4
20260904082019 79 188 1.0 2.0 0.00 0.00 0.00 85 1013.3
20260904081605 79 192 1.0 3.0 0.00 0.00 0.00 85 1013.4
20260904081044 79 179 1.0 2.0 0.00 0.00 0.00 85 1013.5
20260904080533 79 190 2.0 5.0 0.00 0.00 0.00 84 1013.5
20260904080021 79 178 1.0 2.0 0.00 0.00 0.00 84 1013.4
20260904075603 79 185 1.0 3.0 0.00 0.00 0.00 84 1013.5
20260904075044 79 184 1.0 2.0 0.00 0.00 0.00 83 1013.5
20260904074524 80 178 1.0 2.0 0.00 0.00 0.00 83 1013.5
20260904074127 80 182 1.0 2.0 0.00 0.00 0.00 83 1013.4
20260904073547 80 179 1.0 2.0 0.00 0.00 0.00 83 1013.4
20260904073049 80 171 1.0 2.0 0.00 0.00 0.00 83 1013.4
20260904072611 80 180 1.0 2.0 0.00 0.00 0.00 82 1013.4
20260904072051 80 184 2.0 3.0 0.00 0.00 0.00 82 1013.5
20260904071535 80 182 1.0 2.0 0.00 0.00 0.00 82 1013.7
20260904071028 80 177 1.0 2.0 0.00 0.00 0.00 82 1013.6
20260904070631 80 182 1.0 2.0 0.00 0.00 0.00 82 1013.6
20260904070112 80 185 1.0 2.0 0.00 0.00 0.00 81 1013.7
20260904065532 80 179 2.0 3.0 0.00 0.00 0.00 81 1013.6
20260904065135 80 183 1.0 2.0 0.00 0.00 0.00 80 1013.8
20260904064617 80 177 1.0 2.0 0.00 0.00 0.00 80 1013.8
20260904064034 80 178 1.0 3.0 0.00 0.00 0.00 80 1013.8
20260904063619 80 190 2.0 2.0 0.00 0.00 0.00 80 1013.7
20260904063101 80 171 2.0 3.0 0.00 0.00 0.00 79 1013.7
20260904062541 80 187 2.0 3.0 0.00 0.00 0.00 78 1013.8
20260904062020 80 229 2.0 6.0 0.00 0.00 0.00 77 1013.8
20260904061623 80 182 1.0 3.0 0.00 0.00 0.00 77 1013.8
20260904061045 80 176 1.0 1.0 0.00 0.00 0.00 76 1013.8
20260904060534 80 190 1.0 2.0 0.00 0.00 0.00 76 1013.9
20260904060035 80 180 1.0 2.0 0.00 0.00 0.00 76 1013.9
20260904055639 81 172 1.0 1.0 0.00 0.00 0.00 76 1013.8
20260904055119 81 182 1.0 2.0 0.00 0.00 0.00 75 1014.0
20260904054600 81 176 1.0 2.0 0.00 0.00 0.00 75 1013.9
20260904054034 81 181 2.0 3.0 0.00 0.00 0.00 74 1013.8
20260904053534 81 177 1.0 2.0 0.00 0.00 0.00 75 1013.9
20260904053035 81 171 1.0 1.0 0.00 0.00 0.00 75 1013.8
20260904052554 81 182 1.0 2.0 0.00 0.00 0.00 74 1013.7
20260904052034 81 181 2.0 3.0 0.00 0.00 0.00 73 1013.6
20260904051534 81 193 2.0 3.0 0.00 0.00 0.00 74 1013.8
20260904051034 81 196 2.0 3.0 0.00 0.00 0.00 73 1013.7
20260904050534 81 175 1.0 2.0 0.00 0.00 0.00 74 1013.7
20260904050037 81 185 1.0 2.0 0.00 0.00 0.00 74 1013.7
20260904045532 81 205 1.0 3.0 0.00 0.00 0.00 75 1013.5
20260904045115 81 182 1.0 2.0 0.00 0.00 0.00 74 1013.5
20260904044557 81 182 1.0 3.0 0.00 0.00 0.00 74 1013.6
20260904044054 81 179 1.0 2.0 0.00 0.00 0.00 74 1013.6
20260904043532 81 166 1.0 2.0 0.00 0.00 0.00 74 1013.7
20260904043115 82 195 1.0 2.0 0.00 0.00 0.00 74 1013.7
20260904042616 82 181 1.0 2.0 0.00 0.00 0.00 74 1013.6
20260904042036 82 163 1.0 2.0 0.00 0.00 0.00 74 1013.5
20260904041613 82 197 2.0 3.0 0.00 0.00 0.00 73 1013.5
20260904041136 82 184 1.0 3.0 0.00 0.00 0.00 73 1013.4
20260904040615 82 182 2.0 3.0 0.00 0.00 0.00 72 1013.5
20260904040035 83 169 1.0 2.0 0.00 0.00 0.00 72 1013.6
20260904035619 83 170 1.0 2.0 0.00 0.00 0.00 72 1013.6
20260904035059 83 178 1.0 2.0 0.00 0.00 0.00 72 1013.6
20260904034540 83 164 1.0 2.0 0.00 0.00 0.00 71 1013.6
20260904034034 83 182 1.0 2.0 0.00 0.00 0.00 71 1013.6
20260904033534 83 183 1.0 2.0 0.00 0.00 0.00 70 1013.5
20260904033029 84 181 1.0 2.0 0.00 0.00 0.00 71 1013.4
20260904032652 84 175 1.0 2.0 0.00 0.00 0.00 70 1013.4
20260904032111 84 180 2.0 2.0 0.00 0.00 0.00 70 1013.3
20260904031533 84 200 2.0 5.0 0.00 0.00 0.00 70 1013.4
20260904031156 84 164 1.0 2.0 0.00 0.00 0.00 70 1013.3
20260904030556 84 175 1.0 3.0 0.00 0.00 0.00 70 1013.2
20260904030034 84 178 1.0 2.0 0.00 0.00 0.00 69 1013.3
20260904025534 84 179 1.0 2.0 0.00 0.00 0.00 67 1013.3
20260904025048 84 176 1.0 2.0 0.00 0.00 0.00 66 1013.3
20260904024611 84 175 1.0 3.0 0.00 0.00 0.00 66 1013.2
20260904024112 84 171 2.0 5.0 0.00 0.00 0.00 66 1013.1
20260904023532 84 184 2.0 3.0 0.00 0.00 0.00 65 1013.1
20260904023115 84 204 2.0 3.0 0.00 0.00 0.00 65 1012.9
20260904022555 85 174 1.0 3.0 0.00 0.00 0.00 65 1012.9
20260904022034 85 194 2.0 3.0 0.00 0.00 0.00 65 1012.7
20260904021533 85 188 2.0 2.0 0.00 0.00 0.00 66 1012.6
20260904021115 85 192 2.0 5.0 0.00 0.00 0.00 66 1012.5
20260904020556 85 181 1.0 2.0 0.00 0.00 0.00 67 1012.4
20260904020035 85 195 2.0 5.0 0.00 0.00 0.00 67 1012.3
20260904015620 85 181 2.0 3.0 0.00 0.00 0.00 67 1012.1
20260904015059 86 171 2.0 3.0 0.00 0.00 0.00 67 1012.0
20260904014534 86 186 2.0 3.0 0.00 0.00 0.00 67 1012.0
20260904014053 86 179 1.0 3.0 0.00 0.00 0.00 67 1012.0
20260904013532 86 190 2.0 3.0 0.00 0.00 0.00 67 1011.9
20260904013116 86 186 2.0 3.0 0.00 0.00 0.00 68 1011.9
20260904012555 86 166 1.0 1.0 0.00 0.00 0.00 68 1011.8
20260904012034 86 175 1.0 2.0 0.00 0.00 0.00 67 1011.7
20260904011533 87 171 1.0 3.0 0.00 0.00 0.00 67 1011.6
20260904011116 87 165 2.0 3.0 0.00 0.00 0.00 67 1011.6
20260904010556 87 187 2.0 3.0 0.00 0.00 0.00 67 1011.7
20260904010034 87 183 1.0 2.0 0.00 0.00 0.00 67 1011.6
20260904005620 87 179 1.0 2.0 0.00 0.00 0.00 67 1011.5
20260904005120 88 168 1.0 3.0 0.00 0.00 0.00 66 1011.6
20260904004535 88 183 2.0 3.0 0.00 0.00 0.00 66 1011.4
20260904004020 88 186 3.0 5.0 0.00 0.00 0.00 65 1011.4
20260904003603 89 188 2.0 5.0 0.00 0.00 0.00 65 1011.4
20260904003044 89 175 2.0 2.0 0.00 0.00 0.00 65 1011.4
20260904002534 89 175 1.0 2.0 0.00 0.00 0.00 64 1011.5
20260904002034 90 172 2.0 3.0 0.00 0.00 0.00 63 1011.3
20260904001533 90 187 2.0 3.0 0.00 0.00 0.00 63 1011.3
20260904001136 90 211 2.0 3.0 0.00 0.00 0.00 63 1011.3
20260904000556 90 182 1.0 2.0 0.00 0.00 0.00 63 1011.3
20260904000034 91 188 2.0 3.0 0.00 0.00 0.00 62 1011.1
20260903235619 91 189 2.0 3.0 0.00 0.00 0.00 62 1011.1
20260903235059 91 141 1.0 2.0 0.00 0.00 0.00 62 1011.2
20260903234535 91 179 2.0 3.0 0.00 0.00 0.00 61 1011.1
20260903234040 91 168 1.0 2.0 0.00 0.00 0.00 61 1011.0
20260903233604 92 193 1.0 3.0 0.00 0.00 0.00 61 1011.0
20260903233044 92 182 2.0 5.0 0.00 0.00 0.00 60 1011.1
20260903232524 93 188 2.0 3.0 0.00 0.00 0.00 60 1010.9
20260903232108 93 189 2.0 5.0 0.00 0.00 0.00 60 1010.8
20260903231609 93 193 2.0 5.0 0.00 0.00 0.00 60 1010.8
20260903231049 93 151 2.0 5.0 0.00 0.00 0.00 60 1010.7
20260903230612 93 154 1.0 2.0 0.00 0.00 0.00 60 1010.8
20260903230053 93 190 3.0 8.0 0.00 0.00 0.00 60 1010.8
20260903225534 94 196 2.0 3.0 0.00 0.00 0.00 59 1010.8
20260903225028 94 162 2.0 6.0 0.00 0.00 0.00 59 1010.8
20260903224612 94 168 2.0 2.0 0.00 0.00 0.00 59 1010.9
20260903224051 94 221 3.0 10.0 0.00 0.00 0.00 59 1010.7
20260903223554 94 212 2.0 3.0 0.00 0.00 0.00 58 1010.7
20260903223050 93 189 2.0 5.0 0.00 0.00 0.00 60 1010.8
20260903222611 93 154 1.0 3.0 0.00 0.00 0.00 61 1010.7
20260903222051 93 187 2.0 5.0 0.00 0.00 0.00 60 1010.7
20260903221535 93 160 2.0 3.0 0.00 0.00 0.00 59 1010.7
20260903221028 94 191 2.0 5.0 0.00 0.00 0.00 58 1010.7
20260903220612 95 183 2.0 3.0 0.00 0.00 0.00 57 1010.8
20260903220052 96 201 2.0 5.0 0.00 0.00 0.00 57 1010.7